YH3AJS-13 Weather Reports


time (UTC)temp
F
wind
direction
speed
knots
gust
knots
rain 1hr
in
rain 24hr
in
rain mn
in
humidity
%
barometer
mb
20260902074334 0 0.0 0.0 0.00 0.00 0.00 36 751.7
20260902065830 0 0.0 0.0 0.00 0.00 0.00 33 752.0
20260902064329 0 0.0 0.0 0.00 0.00 0.00 44 752.1
20260902062829 0 0.0 0.0 0.00 0.00 0.00 49 752.2
20260902061328 0 0.0 0.0 0.00 0.00 0.00 53 752.4
20260902055827 0 0.0 0.0 0.00 0.00 0.00 49 752.4
20260902054326 0 0.0 0.0 0.00 0.00 0.00 45 752.5
20260902051324 0 0.0 0.0 0.00 0.00 0.00 50 752.8
20260902045822 0 0.0 0.0 0.00 0.00 0.00 48 752.9
20260902041319 0 0.0 0.0 0.00 0.00 0.00 31 753.1
20260902035818 0 0.0 0.0 0.00 0.00 0.00 29 753.5
20260902034317 0 0.0 0.0 0.00 0.00 0.00 25 753.6
20260902032817 0 0.0 0.0 0.00 0.00 0.00 23 753.8
20260902031315 0 0.0 0.0 0.00 0.00 0.00 20 753.9
20260902025814 0 0.0 0.0 0.00 0.00 0.00 21 754.0
20260902024309 0 0.0 0.0 0.00 0.00 0.00 19 754.2
20260902022809 0 0.0 0.0 0.00 0.00 0.00 14 754.2
20260902021307 0 0.0 0.0 0.00 0.00 0.00 12 754.3
20260902014305 0 0.0 0.0 0.00 0.00 0.00 12 754.4
20260902012803 0 0.0 0.0 0.00 0.00 0.00 11 754.3
20260902011302 0 0.0 0.0 0.00 0.00 0.00 10 754.3
20260902005800 0 0.0 0.0 0.00 0.00 0.00 754.1
20260902004259 0 0.0 0.0 0.00 0.00 0.00 753.9
20260902002754 0 0.0 0.0 0.00 0.00 0.00 753.8
20260902001253 0 0.0 0.0 0.00 0.00 0.00 753.8
20260901235752 0 0.0 0.0 0.00 0.00 0.00 753.7
20260901234249 0 0.0 0.0 0.00 0.00 0.00 753.5
20260901225741 0 0.0 0.0 0.00 0.00 0.00 753.3
20260901224236 0 0.0 0.0 0.00 0.00 0.00 753.3
20260901221232 0 0.0 0.0 0.00 0.00 0.00 753.1
20260901212724 0 0.0 0.0 0.00 0.00 0.00 10 753.0
20260901211220 0 0.0 0.0 0.00 0.00 0.00 10 753.0
20260901205719 0 0.0 0.0 0.00 0.00 0.00 753.0
20260901204216 0 0.0 0.0 0.00 0.00 0.00 753.0
20260901202713 0 0.0 0.0 0.00 0.00 0.00 753.0
20260901201213 0 0.0 0.0 0.00 0.00 0.00 753.0
20260901195711 0 0.0 0.0 0.00 0.00 0.00 753.0
20260901191202 0 0.0 0.0 0.00 0.00 0.00 752.9
20260901184202 0 0.0 0.0 0.00 0.00 0.00 752.9
20260901182658 0 0.0 0.0 0.00 0.00 0.00 753.1
20260901181158 0 0.0 0.0 0.00 0.00 0.00 753.2
20260901174151 0 0.0 0.0 0.00 0.00 0.00 753.3
20260901172649 0 0.0 0.0 0.00 0.00 0.00 753.4
20260901165640 0 0.0 0.0 0.00 0.00 0.00 753.7
20260901164139 0 0.0 0.0 0.00 0.00 0.00 10 753.8
20260901162634 0 0.0 0.0 0.00 0.00 0.00 753.8
20260901161131 0 0.0 0.0 0.00 0.00 0.00 753.9
20260901155628 0 0.0 0.0 0.00 0.00 0.00 754.0
20260901154127 0 0.0 0.0 0.00 0.00 0.00 12 754.2
20260901151125 0 0.0 0.0 0.00 0.00 0.00 12 754.3
20260901145625 0 0.0 0.0 0.00 0.00 0.00 11 754.2
20260901144116 0 0.0 0.0 0.00 0.00 0.00 12 754.2
20260901141112 0 0.0 0.0 0.00 0.00 0.00 12 754.0
20260901134108 0 0.0 0.0 0.00 0.00 0.00 13 753.9
20260901132618 0 0.0 0.0 0.00 0.00 0.00 13 753.8
20260901131103 0 0.0 0.0 0.00 0.00 0.00 14 753.8
20260901125600 0 0.0 0.0 0.00 0.00 0.00 14 753.7
20260901124059 0 0.0 0.0 0.00 0.00 0.00 13 753.6
20260901122554 0 0.0 0.0 0.00 0.00 0.00 11 753.5
20260901121051 0 0.0 0.0 0.00 0.00 0.00 11 753.3
20260901115549 0 0.0 0.0 0.00 0.00 0.00 11 753.3
20260901114048 0 0.0 0.0 0.00 0.00 0.00 753.2
20260901112544 0 0.0 0.0 0.00 0.00 0.00 12 753.2
20260901105537 0 0.0 0.0 0.00 0.00 0.00 17 752.9
20260901102534 0 0.0 0.0 0.00 0.00 0.00 17 752.9
20260901101032 0 0.0 0.0 0.00 0.00 0.00 17 752.9
20260901095529 0 0.0 0.0 0.00 0.00 0.00 18 752.8
20260901094025 0 0.0 0.0 0.00 0.00 0.00 20 752.8
20260901085511 0 0.0 0.0 0.00 0.00 0.00 27 752.4
20260901082510 0 0.0 0.0 0.00 0.00 0.00 16 752.1
20260901081009 0 0.0 0.0 0.00 0.00 0.00 18 752.0
20260901075508 0 0.0 0.0 0.00 0.00 0.00 31 752.0